#timestamp,LO_Frequency,Hit,StdDev 
1566806415.1,286047000.1,N
1566806435.9,286047000.5,N
1566806455.7,286046998.6,N
1566806475.5,286046998.3,N
1566806495.4,286046999.9,N
1566806515.2,286047002.4,N
1566806535.0,286047000.4,N
1566806535.9,286047000.4,N
1566806555.8,286046998.5,N
1566806575.6,286046999.1,N
1566806595.4,286046999.0,N
1566806615.3,286046996.9,N
1566806635.1,286046999.0,N
1566806636.0,286046999.0,N
1566806655.8,286046998.1,N
1566806675.7,286046998.9,N
1566806695.5,286047000.0,N
1566806715.3,286046998.4,N
1566806735.2,286046998.9,N
1566806755.9,286046998.1,N
1566806775.7,286046999.0,N
1566806795.6,286046996.9,N
1566806815.4,286046997.0,N
1566806835.2,286046997.1,N
1566806855.1,286046998.3,N
1566806856.0,286046998.3,N
1566806875.8,286047000.7,N
1566806895.6,286046999.2,N
1566806915.5,286046996.5,N
1566806935.3,286046999.6,N
1566806955.1,286047000.8,N
1566806975.9,286047000.6,N
1566806995.7,286046998.6,N
1566807015.5,286046997.2,N
1566807035.4,286046997.4,N
1566807055.2,286046996.8,N
1566807075.0,286046997.1,N
1566807075.9,286046997.1,N
1566807095.8,286046997.3,N
1566807115.6,286046996.8,N
1566807135.4,286046996.9,N
1566807155.3,286046998.2,N
1566807175.1,286046998.6,N
1566807176.0,286046998.6,N
1566807195.8,286047000.6,N
1566807215.7,286046999.7,N
1566807235.5,286046998.1,N
1566807255.3,286046998.4,N
1566807275.2,286046998.1,N
1566807295.9,286047000.7,N
1566807315.7,286047001.0,N
1566807335.6,286047001.0,N
1566807355.4,286047000.6,N
1566807375.2,286047000.8,N
1566807395.0,286046998.7,N
1566807396.0,286046998.7,N
1566807415.8,286047000.9,N
1566807435.6,286047000.2,N
1566807455.5,286047001.2,N
1566807475.3,286046998.4,N
1566807495.1,286046998.6,N
1566807515.9,286046998.5,N
1566807535.7,286046999.1,N
1566807555.5,286046999.0,N
1566807575.4,286046999.0,N
1566807595.2,286047000.6,N
1566807615.0,286046999.9,N
1566807615.9,286046999.9,N
1566807635.8,286047002.8,N
1566807655.6,286047002.8,N
1566807675.4,286046998.5,N
1566807695.2,286046999.3,N
1566807715.1,286046997.0,N
1566807716.0,286046997.0,N
1566807735.8,286046997.2,N
1566807755.7,286046997.0,N
1566807775.5,286046997.9,N
1566807795.3,286046999.6,N
1566807815.1,286046999.0,N
1566807835.9,286046998.6,N
1566807855.7,286047000.8,N
1566807875.5,286047000.4,N
1566807895.4,286047001.1,N
1566807915.2,286046998.3,N
1566807935.0,286046996.6,N
1566807935.9,286046996.6,N
1566807955.8,286046999.1,N
1566807975.6,286046996.7,N
1566807995.4,286046996.4,N
1566808015.3,286046996.2,N
1566808035.1,286046997.4,N
1566808055.8,286046999.2,N
1566808075.7,286046996.5,N
1566808095.5,286046996.5,N
1566808115.3,286046995.6,N
1566808135.2,286046995.9,N
1566808155.0,286046995.5,N
1566808155.9,286046995.5,N
1566808175.7,286046994.9,N
1566808195.6,286046995.4,N
1566808215.4,286046997.5,N
1566808235.2,286046996.1,N
1566808255.1,286046995.3,N
1566808256.0,286046995.3,N
1566808275.8,286046996.4,N
1566808295.6,286046995.0,N
1566808315.5,286046995.0,N
1566808335.3,286046997.4,N
1566808355.1,286046994.9,N
1566808375.9,286046995.3,N
1566808395.7,286046997.3,N
1566808415.5,286046998.7,N
1566808435.4,286047001.0,N
1566808455.2,286046998.1,N
1566808475.0,286047000.5,N
1566808475.9,286047000.5,N
1566808495.8,286047000.7,N
1566808515.6,286046999.2,N
1566808535.4,286046996.7,N
1566808555.3,286046997.0,N
1566808575.1,286046997.5,N
1566808595.8,286046997.6,N
1566808615.7,286046993.5,Y
1566808635.5,286046994.9,P
1566808655.3,286046996.8,P
1566808675.2,286046999.1,N
1566808695.0,286046999.3,N
1566808695.9,286046999.3,N
1566808715.7,286046996.5,N
1566808735.6,286046998.7,N
1566808755.4,286046998.4,N
1566808775.2,286046999.3,N
1566808795.1,286046998.3,N
1566808796.0,286046998.3,N
1566808815.8,286046997.7,N
1566808835.6,286046998.0,N
1566808855.5,286046998.7,N
1566808875.3,286046999.1,N
1566808895.1,286046997.6,N
1566808915.9,286046998.3,N
1566808935.7,286046996.7,N
1566808955.5,286046997.2,N
1566808975.4,286046997.6,N
1566808995.2,286046997.2,N
1566809015.0,286046996.9,N
1566809015.9,286046996.9,N
1566809035.8,286046999.4,N
1566809055.6,286046996.8,N
1566809075.4,286046998.2,N
1566809095.3,286046997.0,N
1566809115.1,286046995.6,Y
1566809135.8,286046997.7,P
1566809155.7,286046997.5,P
1566809175.5,286046997.8,P
1566809195.3,286046997.6,Y
1566809215.2,286047001.2,P
1566809235.0,286047000.4,N
1566809235.9,286047000.4,N
1566809255.7,286046999.6,N
1566809275.6,286046998.9,N
1566809295.4,286046999.6,N
1566809315.2,286046994.9,Y
1566809335.1,286046999.5,P
1566809336.0,286046999.5,P
1566809355.8,286046999.2,P
1566809375.7,286046997.1,Y
1566809395.5,286046999.6,P
1566809415.3,286046994.9,P
1566809435.1,286046993.5,N
1566809455.9,286046995.2,N
1566809475.7,286046995.3,N
1566809495.5,286046997.3,N
1566809515.4,286046996.1,N
1566809535.2,286046995.1,N
1566809555.0,286046998.0,N
1566809555.9,286046998.0,N
1566809575.8,286046997.8,N
1566809595.6,286046997.0,N
1566809615.4,286046998.6,N
1566809635.3,286046999.5,N
1566809655.1,286046994.9,N
1566809675.8,286046997.4,N
1566809695.7,286046997.7,N
1566809715.5,286046995.5,N
1566809735.3,286046993.6,Y
1566809755.2,286046997.9,P
1566809775.0,286046995.1,P
1566809775.9,286046995.1,P
1566809795.8,286046994.9,Y
1566809815.6,286046999.8,P
1566809835.4,286047003.6,N
1566809855.3,286047003.2,N
1566809875.1,286047003.1,N
1566809876.0,286047003.1,N
1566809895.8,286047004.0,N
1566809915.7,286047001.3,N
1566809935.5,286047004.2,N
1566809955.3,286047001.7,N
1566809975.2,286047004.0,N
1566809995.9,286047000.9,N
